sat.trackr.live / text

‹ back to catalog

STARLINK-6126

NORAD 56124 · 2023-046AJ

PAYLOAD ACTIVE UNKNOWN

§ Identity

Operator
Country
US
Launch date
2023-03-29
Launch site
AFETR
Launch vehicle
Mass (kg)
RCS (m²)

Purposes: comms

External: N2YO · Heavens-Above · Gunter

§ Orbital elements

Epoch: 2026-09-20T07:33:06.404544Z

Period
94.27 min
Inclination
43.0012°
Eccentricity
0.0001237
Mean motion
15.27578069 rev/d
Perigee alt
482.2 km
Apogee alt
483.9 km
Semi-major
6,861.2 km
B*
8.2903e-6
RAAN
128.0146°
Arg perigee
243.8090°
Mean anomaly
116.2634°
Rev number
19,196

§ Raw data

STARLINK-61261 56124U 23046AJ  26263.31465746 -.00000034  00000+0  82903-5 0  99922 56124  43.0012 128.0146 0001237 243.8090 116.2634 15.27578069191960

JSON: /api/v1/satellites/56124 · /tle

For live sub-satellite position, see the globe view (requires WebGL).

§ Visibility from observer

Set your observer location to see the next 7 days of passes ≥ 10°. The values pass through the URL so the page stays shareable.

No JS? Fill the form by hand. The geolocation button needs JavaScript.